Doylestown, PA

4:18 PM EST on December 09, 2019 (GMT -0500)
Doylestown

Weather History for KDYL - October, 2019

Change the Weather History Date:

Wednesday, October 30, 2019

  Actual Average (KTTN) Record (KTTN)
Temperature  
Mean Temperature 62 °F -  
Max Temperature 64 °F 57 °F 81 °F (1946)
Min Temperature 59 °F 39 °F 29 °F (1910)
Degree Days  
Heating Degree Days 4    
Growing Degree Days 12 (Base 50)    
Moisture  
Dew Point 59 °F    
Average Humidity 92    
Maximum Humidity 94    
Minimum Humidity 87    
Precipitation  
Precipitation 0.08 in - - ()
Sea Level Pressure  
Sea Level Pressure 30.21 in    
Wind  
Wind Speed 3 mph (NE)    
Max Wind Speed 6 mph    
Max Gust Speed -    
Visibility 5 miles    
Events Rain    
Averages and records for this station are not official NWS values.
T = Trace of Precipitation, MM = Missing Value Source: NWS Daily Summary

Daily Weather History Graph

Daily Weather History Graph

Search for Another Location

Airport or City:

Astronomy

Oct. 30, 2019 Rise Set
Actual Time 7:27 AM EDT 6:00 PM EDT
Civil Twilight 6:59 AM EDT 6:28 PM EDT
Nautical Twilight 6:27 AM EDT 7:00 PM EDT
Astronomical Twilight 5:55 AM EDT 7:31 PM EDT
Moon 10:08 AM EDT (10/30) 8:05 PM EDT (10/30)
Length of Visible Light 11h 28m
Length of Day
10h 32m
Waxing Crescent, 8% of the Moon is Illuminated
Oct 30
Waxing Crescent
Nov 4
First Quarter
Nov 12
Full
Nov 19
Last Quarter
Nov 26
New

Hourly Weather History & Observations

Time (EDT) Temp. Dew Point Humidity Pressure Visibility Wind Dir Wind Speed Gust Speed Precip Events Conditions
12:52 AM 59.0 °F 57.2 °F 94% 30.27 in 1.0 mi North 3.5 mph - N/A   Mist
12:54 AM 59.0 °F 57.0 °F 93% 30.27 in 1.0 mi North 4.6 mph - N/A   Mist
1:13 AM 59.0 °F 57.0 °F 93% 30.27 in 0.8 mi Calm Calm - N/A   Mist
1:54 AM 59.0 °F 57.0 °F 93% 30.27 in 0.8 mi Calm Calm - N/A   Mist
2:09 AM 59.0 °F 57.0 °F 93% 30.27 in 1.0 mi NNE 3.5 mph - N/A   Mist
2:39 AM 59.0 °F 57.0 °F 93% 30.26 in 2.5 mi North 3.5 mph - N/A   Overcast
2:49 AM 59.0 °F 57.2 °F 94% 30.26 in 4.0 mi Calm Calm - N/A   Overcast
2:54 AM 59.0 °F 57.0 °F 93% 30.26 in 4.0 mi Calm Calm - N/A   Overcast
3:31 AM 59.0 °F 57.0 °F 93% 30.25 in 2.0 mi NNE 3.5 mph - N/A   Overcast
3:43 AM 59.0 °F 57.0 °F 93% 30.25 in 1.5 mi NNE 3.5 mph - N/A   Overcast
3:54 AM 59.0 °F 57.0 °F 93% 30.25 in 1.5 mi Calm Calm - N/A   Overcast
4:29 AM 59.0 °F 57.0 °F 93% 30.25 in 2.5 mi NNE 3.5 mph - N/A   Overcast
4:44 AM 59.0 °F 57.0 °F 93% 30.25 in 1.5 mi Calm Calm - N/A   Overcast
4:54 AM 59.0 °F 57.0 °F 93% 30.25 in 1.0 mi North 4.6 mph - N/A   Mist
5:13 AM 59.0 °F 57.0 °F 93% 30.24 in 0.8 mi NNE 3.5 mph - N/A   Mist
5:38 AM 59.0 °F 57.0 °F 93% 30.25 in 2.0 mi NNE 4.6 mph - N/A   Overcast
5:46 AM 59.0 °F 57.0 °F 93% 30.25 in 6.0 mi NE 4.6 mph - N/A   Overcast
5:54 AM 59.0 °F 57.0 °F 93% 30.25 in 4.0 mi NNE 3.5 mph - N/A   Overcast
6:00 AM 59.0 °F 57.0 °F 93% 30.25 in 1.8 mi Variable 3.5 mph - N/A   Overcast
6:54 AM 59.0 °F 57.0 °F 93% 30.26 in 1.0 mi NE 3.5 mph - N/A   Mist
7:22 AM 59.0 °F 57.0 °F 93% 30.27 in 2.0 mi NNE 4.6 mph - N/A   Overcast
7:54 AM 59.0 °F 57.0 °F 93% 30.27 in 3.0 mi NE 3.5 mph - N/A   Overcast
8:54 AM 60.1 °F 57.0 °F 90% 30.27 in 3.0 mi NE 4.6 mph - N/A   Overcast
9:37 AM 60.1 °F 57.9 °F 93% 30.27 in 2.5 mi NNE 4.6 mph - N/A   Overcast
9:54 AM 60.1 °F 57.9 °F 93% 30.27 in 2.5 mi NE 4.6 mph - N/A   Overcast
10:01 AM 61.0 °F 57.9 °F 90% 30.27 in 3.0 mi Variable 4.6 mph - N/A   Overcast
10:51 AM 62.6 °F 59.0 °F 88% 30.27 in 4.0 mi NNE 5.8 mph - N/A   Overcast
10:54 AM 62.1 °F 59.0 °F 90% 30.26 in 3.0 mi NNE 5.8 mph - N/A   Overcast
11:54 AM 63.0 °F 60.1 °F 90% 30.25 in 5.0 mi NNE 4.6 mph - N/A   Overcast
12:04 PM 63.0 °F 59.0 °F 87% 30.26 in 3.0 mi North 4.6 mph - N/A   Overcast
12:47 PM 63.0 °F 60.1 °F 90% 30.22 in 3.0 mi NE 4.6 mph - 0.00 in Rain Light Rain
12:54 PM 64.0 °F 60.1 °F 87% 30.22 in 4.0 mi NNE 5.8 mph - 0.00 in   Overcast
1:08 PM 64.0 °F 60.1 °F 87% 30.22 in 5.0 mi NNE 4.6 mph - 0.01 in   Overcast
1:26 PM 63.0 °F 60.1 °F 90% 30.21 in 6.0 mi NNE 3.5 mph - 0.01 in   Overcast
1:54 PM 63.0 °F 60.1 °F 90% 30.20 in 8.0 mi Calm Calm - 0.01 in   Overcast
2:08 PM 63.0 °F 60.1 °F 90% 30.20 in 9.0 mi NE 4.6 mph - 0.00 in   Overcast
2:54 PM 64.0 °F 61.0 °F 90% 30.19 in 8.0 mi Calm Calm - 0.00 in   Overcast
3:54 PM 64.0 °F 61.0 °F 90% 30.17 in 5.0 mi Calm Calm - 0.01 in   Overcast
4:22 PM 64.0 °F 61.0 °F 90% 30.17 in 10.0 mi Calm Calm - N/A   Overcast
4:33 PM 64.0 °F 61.0 °F 90% 30.17 in 10.0 mi Calm Calm - N/A   Overcast
4:54 PM 63.0 °F 61.0 °F 93% 30.16 in 10.0 mi Calm Calm - N/A   Overcast
5:46 PM 63.0 °F 60.1 °F 90% 30.15 in 10.0 mi Calm Calm - N/A   Mostly Cloudy
5:54 PM 63.0 °F 60.1 °F 90% 30.14 in 10.0 mi Calm Calm - N/A   Mostly Cloudy
6:27 PM 62.1 °F 60.1 °F 93% 30.15 in 10.0 mi Calm Calm - N/A   Mostly Cloudy
6:50 PM 62.6 °F 60.8 °F 94% 30.15 in 10.0 mi Calm Calm - N/A   Overcast
6:54 PM 62.1 °F 60.1 °F 93% 30.15 in 10.0 mi Calm Calm - N/A   Overcast
7:54 PM 62.1 °F 60.1 °F 93% 30.14 in 10.0 mi Calm Calm - 0.01 in   Overcast
8:37 PM 62.1 °F 60.1 °F 93% 30.13 in 10.0 mi Calm Calm - N/A   Overcast
8:54 PM 62.1 °F 60.1 °F 93% 30.13 in 10.0 mi Calm Calm - N/A   Overcast
9:45 PM 62.1 °F 60.1 °F 93% 30.12 in 10.0 mi SE 4.6 mph - 0.00 in   Overcast
9:54 PM 62.1 °F 60.1 °F 93% 30.11 in 8.0 mi SSE 3.5 mph - 0.00 in   Overcast
10:54 PM 62.1 °F 60.1 °F 93% 30.10 in 6.0 mi SSE 5.8 mph - 0.00 in Rain Light Rain
11:28 PM 62.1 °F 60.1 °F 93% 30.10 in 7.0 mi SSE 4.6 mph - 0.01 in Rain Light Rain
11:38 PM 62.1 °F 60.1 °F 93% 30.09 in 7.0 mi SSE 4.6 mph - 0.03 in Rain Light Rain
11:54 PM 62.1 °F 60.1 °F 93% 30.09 in 6.0 mi SSE 3.5 mph - 0.05 in Rain Light Rain